EDT,Max TemperatureF,Mean TemperatureF,Min TemperatureF,Max Dew PointF,MeanDew PointF,Min DewpointF,Max Humidity, Mean Humidity, Min Humidity, Max Sea Level PressureIn, Mean Sea Level PressureIn, Min Sea Level PressureIn, Max VisibilityMiles, Mean VisibilityMiles, Min VisibilityMiles, Max Wind SpeedMPH, Mean Wind SpeedMPH, Max Gust SpeedMPH,PrecipitationIn, CloudCover, Events, WindDirDegrees
2013-10-1,73,63,53,61,55,48,90,82,66,30.04,30.00,29.95,10,5,0,14,5,23,0.01,4,Fog,214
2013-10-2,82,70,57,59,53,37,90,67,20,30.08,30.04,29.96,10,7,0,12,5,,0.02,0,Fog,262
2013-10-3,80,68,55,67,60,51,84,75,60,30.06,30.00,29.94,10,9,6,14,4,18,0.00,4,,204
2013-10-4,82,75,68,67,63,56,81,69,49,30.03,29.99,29.95,10,9,4,13,7,,0.01,2,,213
2013-10-5,77,72,66,66,63,59,84,75,61,30.06,29.98,29.87,10,7,5,12,4,17,0.14,6,Rain,119
2013-10-6,73,66,59,64,60,53,88,75,64,29.87,29.77,29.65,10,8,1,29,9,37,0.35,7,Rain,202
2013-10-7,62,54,46,54,46,41,88,71,56,30.13,29.84,29.70,10,10,10,22,11,30,0.03,5,Rain,244
2013-10-8,69,56,43,47,42,38,86,65,32,30.30,30.25,30.14,10,10,10,9,3,,0.00,0,,167
2013-10-9,72,56,42,53,44,39,89,68,38,30.32,30.27,30.23,10,10,10,12,2,17,0.01,0,,108
2013-10-10,75,58,42,51,43,37,90,73,27,30.24,30.21,30.14,10,7,0,9,1,,0.01,0,Fog,101
2013-10-11,75,59,43,52,46,39,90,69,34,30.16,30.12,30.08,10,8,0,7,2,,0.00,0,Fog,66
2013-10-12,79,64,48,61,52,44,94,79,29,30.12,30.10,30.06,10,5,0,9,2,,0.01,2,Fog,116
2013-10-13,71,61,50,57,49,37,94,70,29,30.35,30.19,30.09,10,6,0,15,3,,0.00,3,Fog,317
2013-10-14,68,55,44,45,42,39,85,65,39,30.42,30.35,30.28,10,10,10,8,4,,0.01,0,,29
2013-10-15,66,54,43,59,52,39,86,77,60,30.26,30.02,29.85,10,7,3,17,7,22,0.01,5,Rain,145
2013-10-16,64,60,55,59,51,42,84,71,46,29.92,29.85,29.82,10,7,4,20,10,28,0.07,5,,234
2013-10-17,55,51,48,48,46,43,83,79,72,29.92,29.84,29.77,10,8,2,16,8,21,0.02,7,Rain,220
2013-10-18,66,54,43,45,42,39,87,69,38,29.93,29.89,29.85,10,9,5,15,8,24,0.05,3,,235
2013-10-19,51,45,39,44,40,35,86,80,73,29.90,29.82,29.76,10,6,2,14,8,,0.05,6,Rain,245
2013-10-20,62,50,39,43,39,35,83,63,41,29.93,29.88,29.85,10,10,10,17,8,25,0.12,5,Rain,214
2013-10-21,57,49,41,47,43,33,80,68,53,29.88,29.85,29.81,10,10,8,17,14,26,0.05,6,Rain,229
2013-10-22,53,44,34,35,30,27,76,60,41,29.94,29.90,29.86,10,10,10,17,12,23,0.00,5,,249
2013-10-23,52,41,32,34,30,25,88,67,39,29.94,29.88,29.83,10,9,5,14,8,,0.01,5,Rain,289
2013-10-24,51,42,34,33,30,25,82,66,38,30.19,30.04,29.94,10,10,10,17,9,23,0.00,4,,273
2013-10-25,52,42,34,34,30,27,82,67,41,30.34,30.26,30.14,10,10,9,16,9,22,0.00,4,Snow,260
2013-10-26,53,46,39,40,31,26,86,61,46,30.10,29.91,29.80,10,9,1,24,16,32,0.09,6,Rain,238
2013-10-27,55,44,32,36,31,28,85,66,38,30.08,30.03,30.00,10,10,10,14,7,,0.00,3,,232
2013-10-28,55,44,34,39,33,28,82,67,57,30.40,30.26,30.08,10,10,10,13,6,,0.00,5,,42
2013-10-29,54,45,36,37,33,29,79,63,50,30.45,30.38,30.26,10,10,10,8,6,,0.00,5,,52
2013-10-30,66,50,34,52,41,30,88,72,40,30.24,30.11,29.97,10,8,2,9,4,,0.20,3,Rain,129
2013-10-31,66,60,55,60,56,52,89,78,68,29.96,29.58,29.17,10,4,1,28,12,36,1.76,8,Rain,189